Weather in Uspenskoye

Russia / Smolensk Oblast     55°20′30″N   34°39′47″E
temp.,
°C
wind,
m/s
gust,
m/s
humid.,
%
clouds,
%
prec.,
mm/h
press.,
hPa
HPBL,
m
20 september, mon
mon2000:00+5ene71594100 2.1 10141046
03:00+5ene71494100 2.6 1013948
06:00+5ene71395100 0.2 1012832
09:00+5ene71495100 0.3 1012823
12:00+6e71494100 0.3 1012790
15:00+6e71495100 0.7 1012777
18:00+6e71495100 2.1 1012800
21:00+5e61495100 5.6 1013771
21 september, tue
tue2100:00+5e61395100 3.1 1012704
03:00+5e51196100 4.1 1012622
06:00+5ene41097100 0.9 1011562
09:00+6ene41097100 1.5 1011556
12:00+6ene5997100 0.3 1011507
15:00+6ene4997100 1.3 1012502
18:00+6ene3798100 0.1 1012408
21:00+6ene3798100 0.3 1012337
22 september, wed
wed2200:00+6ne3698100 0.0 1012303
03:00+6nne3698100 0.3 1012361
06:00+5nne4697100 1.2 1012404
09:00+4n3698100 1.6 1013329
12:00+5n3597100 0.0 1013379
15:00+6n3596100 0.1 1013426
18:00+4nne4597100 0.3 1014415
21:00+4nne2398100 0.8 1014464
23 september, thu
thu2300:00+4nne2398100 0.3 1014223
03:00+5ne1297100 0.4 1014121
06:00+5ne1297100 0.0 1014112
09:00+6ene129299 0.0 1014225
12:00+8e2286100 0.1 1014495
15:00+10e117594 0.1 1014711
18:00+7se2493100 0.8 1014170
21:00+7se129795 3.3 101486
24 september, fri
fri2400:00+6sse2497100 0.4 1013146
03:00+6sse369696 0.4 1012225
06:00+6sse2697100 0.1 1011216
09:00+6s3694100 0.4 1010335
12:00+7s488599 0.2 1008965
15:00+8s61075100 0.5 10061162
18:00+6s5992100 0.6 1006932
21:00+6sse61195100 2.3 10051036